Tracking 35237 objects as of 6-Sep-2026
HD Live streaming from Space Station
objects crossing your sky now

STARLINK-30805

Track STARLINK-30805 now!
10-day predictions
STARLINK-30805 is classified as:


NORAD ID: 58214
Int'l Code: 2023-170J
Launch date: November 3, 2023
Source: United States (US)
Launch site: AIR FORCE EASTERN TEST RANGE (AFETR)
Your satellite tracking list
Your tracking list is empty




NASA's NSSDC Master Catalog

Two Line Element Set (TLE):
1 58214U 23170J   26249.42368535  .00000462  00000-0  26315-4 0  9995
2 58214  43.0017 253.2573 0001481 271.6604  88.4078 15.27573121157949
Source of the keplerian elements: AFSPC